GW2742 Weather Reports


time (UTC)temp
F
wind
direction
speed
knots
gust
knots
rain 1hr
in
rain 24hr
in
rain mn
in
humidity
%
barometer
mb
20260905224543 84 308 0.9 3.5 0.00 0.00 0.00 30 1014.9
20260905224025 83 0 0.0 4.3 0.00 0.00 0.00 31 1014.9
20260905223524 83 121 1.7 4.3 0.00 0.00 0.00 31 1014.9
20260905223050 83 57 0.0 4.3 0.00 0.00 0.00 31 1015.0
20260905222523 83 160 0.9 4.3 0.00 0.00 0.00 33 1015.1
20260905222026 83 75 0.9 4.3 0.00 0.00 0.00 37 1015.1
20260905221544 83 21 1.7 3.5 0.00 0.00 0.00 30 1015.2
20260905221025 83 60 1.7 3.5 0.00 0.00 0.00 31 1015.1
20260905220524 83 46 0.0 3.5 0.00 0.00 0.00 30 1015.3
20260905220045 83 68 1.7 3.5 0.00 0.00 0.00 30 1015.3
20260905215524 82 0 0.0 4.3 0.00 0.00 0.00 30 1015.2
20260905215023 82 119 1.7 4.3 0.00 0.00 0.00 31 1015.4
20260905214550 82 79 1.7 5.2 0.00 0.00 0.00 29 1015.5
20260905214027 82 94 1.7 5.2 0.00 0.00 0.00 33 1015.5
20260905213528 82 263 0.0 4.3 0.00 0.00 0.00 35 1015.5
20260905213048 82 32 0.9 4.3 0.00 0.00 0.00 32 1015.6
20260905212526 81 0 1.7 4.3 0.00 0.00 0.00 33 1015.7
20260905212025 81 92 1.7 4.3 0.00 0.00 0.00 32 1015.7
20260905211547 81 134 1.7 6.1 0.00 0.00 0.00 31 1015.6
20260905211026 81 97 1.7 6.1 0.00 0.00 0.00 31 1015.7
20260905210526 81 79 2.6 5.2 0.00 0.00 0.00 35 1015.8
20260905210110 81 74 1.7 6.1 0.00 0.00 0.00 35 1015.7
20260905205523 81 113 2.6 6.1 0.00 0.00 0.00 33 1015.8
20260905205024 80 115 2.6 5.2 0.00 0.00 0.00 31 1015.8
20260905204547 81 72 2.6 5.2 0.00 0.00 0.00 32 1015.9
20260905204026 81 134 1.7 5.2 0.00 0.00 0.00 34 1015.9
20260905203529 80 53 1.7 5.2 0.00 0.00 0.00 32 1015.9
20260905203046 80 150 1.7 3.5 0.00 0.00 0.00 36 1015.9
20260905202525 80 304 0.9 4.3 0.00 0.00 0.00 32 1016.0
20260905202025 80 324 0.9 4.3 0.00 0.00 0.00 39 1015.9
20260905201544 80 148 0.9 3.5 0.00 0.00 0.00 33 1016.0
20260905201023 80 217 0.9 3.5 0.00 0.00 0.00 33 1016.1
20260905200523 79 0 0.9 4.3 0.00 0.00 0.00 33 1016.2
20260905200109 79 255 0.9 5.2 0.00 0.00 0.00 34 1016.2
20260905195523 79 322 1.7 5.2 0.00 0.00 0.00 33 1016.2
20260905195024 79 94 1.7 6.1 0.00 0.00 0.00 35 1016.2
20260905194552 79 291 0.9 6.1 0.00 0.00 0.00 34 1016.3
20260905194024 79 63 0.9 5.2 0.00 0.00 0.00 41 1016.3
20260905193525 79 58 0.0 3.5 0.00 0.00 0.00 34 1016.3
20260905193045 78 207 0.9 3.5 0.00 0.00 0.00 39 1016.3
20260905192524 78 53 0.9 3.5 0.00 0.00 0.00 34 1016.5
20260905192025 78 330 0.9 7.0 0.00 0.00 0.00 41 1016.5
20260905191543 78 320 0.9 7.0 0.00 0.00 0.00 34 1016.6
20260905191026 78 57 1.7 6.1 0.00 0.00 0.00 38 1016.6
20260905190525 77 32 0.0 4.3 0.00 0.00 0.00 34 1016.5
20260905190044 77 171 0.9 3.5 0.00 0.00 0.00 35 1016.6
20260905185524 77 0 0.9 5.2 0.00 0.00 0.00 42 1016.7
20260905185024 77 325 2.6 5.2 0.00 0.00 0.00 42 1016.6
20260905184609 77 258 0.9 3.5 0.00 0.00 0.00 38 1016.8
20260905184024 77 8 0.9 2.6 0.00 0.00 0.00 40 1017.0
20260905183526 76 39 0.0 4.3 0.00 0.00 0.00 37 1017.0
20260905183046 76 227 0.9 4.3 0.00 0.00 0.00 36 1017.1
20260905182525 76 37 0.9 6.1 0.00 0.00 0.00 40 1017.1
20260905182028 75 40 1.7 6.1 0.00 0.00 0.00 36 1017.2
20260905181555 75 33 1.7 5.2 0.00 0.00 0.00 37 1017.2
20260905181025 75 1 2.6 5.2 0.00 0.00 0.00 44 1017.3
20260905180526 74 0 0.9 4.3 0.00 0.00 0.00 44 1017.4
20260905180051 74 344 0.9 6.1 0.00 0.00 0.00 43 1017.5
20260905175526 74 327 1.7 6.1 0.00 0.00 0.00 39 1017.6
20260905175024 74 1 0.9 6.1 0.00 0.00 0.00 42 1017.6
20260905174545 74 15 0.9 5.2 0.00 0.00 0.00 42 1017.7
20260905174024 74 25 1.7 5.2 0.00 0.00 0.00 38 1017.7
20260905173525 74 329 0.9 4.3 0.00 0.00 0.00 37 1017.6
20260905173054 74 350 1.7 4.3 0.00 0.00 0.00 38 1017.7
20260905172525 74 131 0.9 3.5 0.00 0.00 0.00 38 1017.7
20260905172025 74 8 1.7 3.5 0.00 0.00 0.00 38 1017.7
20260905171550 73 7 0.9 3.5 0.00 0.00 0.00 36 1017.8
20260905171027 73 310 0.9 4.3 0.00 0.00 0.00 38 1017.7
20260905170527 73 0 0.0 4.3 0.00 0.00 0.00 42 1017.7
20260905170044 72 333 1.7 4.3 0.00 0.00 0.00 39 1017.7
20260905165526 72 25 0.9 6.1 0.00 0.00 0.00 41 1017.7
20260905165028 72 0 1.7 6.1 0.00 0.00 0.00 40 1017.8
20260905164546 72 79 2.6 6.1 0.00 0.00 0.00 39 1017.7
20260905164027 72 322 0.9 4.3 0.00 0.00 0.00 39 1017.7
20260905163524 71 0 0.0 4.3 0.00 0.00 0.00 41 1017.7
20260905163051 71 84 0.9 5.2 0.00 0.00 0.00 41 1017.8
20260905162523 71 346 1.7 6.1 0.00 0.00 0.00 41 1017.6
20260905162022 71 359 2.6 6.1 0.00 0.00 0.00 43 1017.7
20260905161546 71 288 1.7 5.2 0.00 0.00 0.00 43 1017.7
20260905161028 70 0 0.9 5.2 0.00 0.00 0.00 43 1017.7
20260905160524 70 314 0.9 5.2 0.00 0.00 0.00 45 1017.7
20260905160045 70 334 1.7 4.3 0.00 0.00 0.00 41 1017.7
20260905155526 70 348 0.9 4.3 0.00 0.00 0.00 43 1017.6
20260905155023 70 0 0.9 5.2 0.00 0.00 0.00 43 1017.7
20260905154559 70 48 0.9 5.2 0.00 0.00 0.00 43 1017.6
20260905154028 70 349 0.9 5.2 0.00 0.00 0.00 43 1017.6
20260905153528 69 354 0.9 4.3 0.00 0.00 0.00 47 1017.6
20260905153045 69 310 0.0 4.3 0.00 0.00 0.00 50 1017.5
20260905152528 68 0 0.0 3.5 0.00 0.00 0.00 49 1017.4
20260905152025 67 359 0.9 3.5 0.00 0.00 0.00 46 1017.4
20260905151606 67 0 0.0 2.6 0.00 0.00 0.00 49 1017.5
20260905151028 66 252 0.9 2.6 0.00 0.00 0.00 51 1017.5
20260905150527 65 252 0.9 2.6 0.00 0.00 0.00 53 1017.5
20260905150054 65 226 0.9 2.6 0.00 0.00 0.00 56 1017.5
20260905145526 64 226 0.9 2.6 0.00 0.00 0.00 54 1017.5
20260905145027 64 213 0.0 3.5 0.00 0.00 0.00 57 1017.5
20260905144549 63 0 0.9 3.5 0.00 0.00 0.00 57 1017.4
20260905144026 62 0 0.0 2.6 0.00 0.00 0.00 57 1017.5
20260905143525 61 259 0.9 2.6 0.00 0.00 0.00 57 1017.4
20260905143045 60 262 0.0 1.7 0.00 0.00 0.00 60 1017.4
20260905142530 60 0 0.0 1.7 0.00 0.00 0.00 63 1017.4
20260905142027 59 0 0.0 1.7 0.00 0.00 0.00 64 1017.3
20260905141550 58 285 0.0 2.6 0.00 0.00 0.00 66 1017.2
20260905141030 58 291 0.0 3.5 0.00 0.00 0.00 66 1017.0
20260905140527 57 238 0.9 3.5 0.00 0.00 0.00 65 1017.2
20260905140048 56 222 0.0 1.7 0.00 0.00 0.00 66 1017.0
20260905135527 56 0 0.0 1.7 0.00 0.00 0.00 69 1016.9
20260905135025 55 0 0.0 2.6 0.00 0.00 0.00 68 1016.8
20260905134543 54 0 0.0 3.5 0.00 0.00 0.00 69 1016.8
20260905134025 54 0 0.9 3.5 0.00 0.00 0.00 69 1016.9
20260905133524 53 199 1.7 3.5 0.00 0.00 0.00 71 1017.0
20260905133052 53 198 0.9 3.5 0.00 0.00 0.00 71 1016.8
20260905132525 52 184 0.0 3.5 0.00 0.00 0.00 71 1016.8
20260905132025 52 0 0.0 0.0 0.00 0.00 0.00 70 1016.7
20260905131601 52 0 0.0 0.0 0.00 0.00 0.00 71 1016.4
20260905131030 52 0 0.0 0.0 0.00 0.00 0.00 71 1016.2
20260905130524 52 0 0.0 0.0 0.00 0.00 0.00 70 1016.0
20260905130044 52 0 0.0 0.0 0.00 0.00 0.00 70 1016.1
20260905125524 52 0 0.0 0.0 0.00 0.00 0.00 69 1016.1
20260905125024 52 0 0.0 0.0 0.00 0.00 0.00 69 1016.1
20260905124543 52 0 0.0 0.0 0.00 0.00 0.00 69 1016.2
20260905124024 52 0 0.0 0.0 0.00 0.00 0.00 70 1016.1
20260905123526 52 0 0.0 0.0 0.00 0.00 0.00 69 1015.7
20260905123107 52 0 0.0 0.0 0.00 0.00 0.00 70 1015.6
20260905122527 53 0 0.0 0.0 0.00 0.00 0.00 67 1015.7
20260905122024 53 0 0.0 0.0 0.00 0.00 0.00 68 1015.8
20260905121546 53 0 0.0 0.0 0.00 0.00 0.00 68 1016.0
20260905121024 53 0 0.0 0.0 0.00 0.00 0.00 67 1016.0
20260905120524 53 0 0.0 0.0 0.00 0.00 0.00 68 1016.1
20260905120045 53 0 0.0 0.0 0.00 0.00 0.00 66 1016.1
20260905115529 53 0 0.0 0.0 0.00 0.00 0.00 67 1016.0
20260905115026 53 0 0.0 0.0 0.00 0.00 0.00 68 1015.9
20260905114546 53 0 0.0 0.0 0.00 0.00 0.00 67 1015.4
20260905114025 53 0 0.0 0.0 0.00 0.00 0.00 67 1015.4
20260905113525 53 0 0.0 0.0 0.00 0.00 0.00 67 1015.4
20260905113045 53 0 0.0 0.0 0.00 0.00 0.00 67 1015.4
20260905112525 54 0 0.0 1.7 0.00 0.00 0.00 67 1015.5
20260905112024 54 0 0.0 1.7 0.00 0.00 0.00 66 1015.5
20260905111549 54 0 0.0 1.7 0.00 0.00 0.00 66 1015.3
20260905111026 54 245 0.0 2.6 0.00 0.00 0.00 65 1015.4
20260905110528 54 0 0.0 2.6 0.00 0.00 0.00 65 1015.3
20260905110042 54 224 0.0 1.7 0.00 0.00 0.00 66 1015.2
20260905105524 54 0 0.0 1.7 0.00 0.00 0.00 68 1015.0
20260905105024 54 0 0.0 2.6 0.00 0.00 0.00 68 1014.8
20260905104551 54 224 0.9 2.6 0.00 0.00 0.00 67 1014.8
20260905104025 54 224 0.0 1.7 0.00 0.00 0.00 68 1014.8
20260905103525 54 224 0.9 1.7 0.00 0.00 0.00 67 1014.9
20260905103054 55 0 0.0 1.7 0.00 0.00 0.00 68 1014.8
20260905102524 55 224 0.9 2.6 0.00 0.00 0.00 66 1014.9
20260905102025 55 0 0.0 2.6 0.00 0.00 0.00 65 1014.9
20260905101544 55 224 0.9 2.6 0.00 0.00 0.00 66 1014.8
20260905101024 55 221 0.9 2.6 0.00 0.00 0.00 65 1014.6
20260905100523 56 228 0.9 2.6 0.00 0.00 0.00 64 1014.5
20260905100053 56 227 0.0 2.6 0.00 0.00 0.00 64 1014.5
20260905095524 56 0 0.9 1.7 0.00 0.00 0.00 62 1014.5
20260905095023 57 0 0.0 1.7 0.00 0.00 0.00 61 1014.8
20260905094553 57 237 0.0 2.6 0.00 0.00 0.00 64 1014.8
20260905094024 57 0 0.0 2.6 0.00 0.00 0.00 61 1014.9
20260905093525 57 245 1.7 2.6 0.00 0.00 0.00 61 1014.9
20260905093045 57 262 0.0 2.6 0.00 0.00 0.00 61 1014.3
20260905092523 58 354 0.0 1.7 0.00 0.00 0.00 60 1014.2
20260905092024 58 0 0.0 1.7 0.00 0.00 0.00 60 1014.3
20260905091551 58 0 0.0 4.3 0.00 0.00 0.00 58 1014.3
20260905091026 58 0 0.0 4.3 0.00 0.00 0.00 59 1014.5
20260905090523 58 220 0.9 4.3 0.00 0.00 0.00 59 1014.6
20260905090047 58 0 0.0 0.0 0.00 0.00 0.00 59 1014.2
20260905085524 59 0 0.0 0.0 0.00 0.00 0.00 58 1014.0
20260905085026 60 0 0.0 0.0 0.00 0.00 0.00 56 1014.0
20260905084553 60 0 0.0 0.9 0.00 0.00 0.00 54 1014.0
20260905084024 60 0 0.0 0.9 0.00 0.00 0.00 55 1014.3
20260905083530 61 325 0.0 2.6 0.00 0.00 0.00 52 1014.4
20260905083044 62 0 0.0 3.5 0.00 0.00 0.00 54 1014.3
20260905082524 62 304 0.9 3.5 0.00 0.00 0.00 50 1014.3
20260905082024 62 176 0.9 3.5 0.00 0.00 0.00 50 1014.2
20260905081543 62 178 0.0 2.6 0.00 0.00 0.00 52 1014.2
20260905081029 62 0 0.0 2.6 0.00 0.00 0.00 51 1014.2
20260905080523 62 0 0.0 3.5 0.00 0.00 0.00 50 1014.2
20260905080128 62 178 0.9 3.5 0.00 0.00 0.00 51 1014.3
20260905075524 62 207 0.9 2.6 0.00 0.00 0.00 51 1014.2
20260905075025 62 160 0.9 2.6 0.00 0.00 0.00 49 1014.2
20260905074544 62 159 0.9 1.7 0.00 0.00 0.00 49 1014.0
20260905074023 63 0 0.0 2.6 0.00 0.00 0.00 48 1013.9
20260905073523 63 0 0.0 3.5 0.00 0.00 0.00 49 1013.7
20260905073045 63 167 0.9 3.5 0.00 0.00 0.00 49 1013.9
20260905072528 64 237 0.0 1.7 0.00 0.00 0.00 50 1013.8
20260905072028 64 237 0.9 1.7 0.00 0.00 0.00 46 1013.6
20260905071542 64 237 0.0 1.7 0.00 0.00 0.00 47 1013.6
20260905071023 65 0 0.0 1.7 0.00 0.00 0.00 48 1013.7
20260905070528 65 0 0.0 1.7 0.00 0.00 0.00 48 1013.6
20260905070057 66 0 0.9 1.7 0.00 0.00 0.00 44 1013.6
20260905065527 66 237 0.0 1.7 0.00 0.00 0.00 45 1013.7
20260905065026 67 237 0.0 1.7 0.00 0.00 0.00 43 1013.4
20260905064553 67 237 0.9 1.7 0.00 0.00 0.00 41 1013.5
20260905064024 67 0 0.0 1.7 0.00 0.00 0.00 43 1013.4
20260905063525 67 237 0.0 1.7 0.00 0.00 0.00 41 1013.4
20260905063047 67 0 0.0 2.6 0.00 0.00 0.00 39 1013.2
20260905062524 68 0 0.9 2.6 0.00 0.00 0.00 39 1013.2
20260905062025 68 245 0.9 2.6 0.00 0.00 0.00 37 1013.1
20260905061546 69 0 0.0 2.6 0.00 0.00 0.00 37 1012.7
20260905061032 69 0 0.9 3.5 0.00 0.00 0.00 36 1012.6
20260905060528 70 340 1.7 3.5 0.00 0.00 0.00 35 1012.4
20260905060104 71 336 0.0 4.3 0.00 0.00 0.00 34 1012.3
20260905055527 71 0 0.9 5.2 0.00 0.00 0.00 34 1012.4
20260905055028 72 33 0.9 7.0 0.00 0.00 0.00 33 1012.4
20260905054554 72 50 1.7 7.0 0.00 0.00 0.00 32 1012.5
20260905054028 72 345 3.5 6.1 0.00 0.00 0.00 33 1012.5
20260905053528 72 342 2.6 7.0 0.00 0.00 0.00 32 1012.4
20260905053056 73 357 2.6 7.0 0.00 0.00 0.00 31 1012.2
20260905052527 73 325 2.6 6.1 0.00 0.00 0.00 32 1011.9
20260905052025 73 249 2.6 6.1 0.00 0.00 0.00 32 1011.6
20260905051552 73 309 0.9 3.5 0.00 0.00 0.00 31 1011.5
20260905051024 73 330 0.9 7.0 0.00 0.00 0.00 31 1011.5
20260905050529 74 291 0.9 7.0 0.00 0.00 0.00 30 1011.4
20260905050045 74 256 0.9 7.0 0.00 0.00 0.00 30 1011.3
20260905045527 75 248 1.7 7.0 0.00 0.00 0.00 30 1011.5
20260905045032 74 250 3.5 8.7 0.00 0.00 0.00 30 1011.6
20260905044552 74 250 3.5 8.7 0.00 0.00 0.00 31 1011.6
20260905044027 74 218 2.6 7.0 0.00 0.00 0.00 31 1011.6
20260905043528 73 4 1.7 7.0 0.00 0.00 0.00 30 1011.3
20260905043104 73 278 1.7 7.0 0.00 0.00 0.00 31 1011.5
20260905042528 73 274 0.9 6.1 0.00 0.00 0.00 31 1011.3
20260905042024 72 127 0.9 6.1 0.00 0.00 0.00 32 1011.4
20260905041544 72 56 0.9 5.2 0.00 0.00 0.00 32 1011.2
20260905041025 72 172 0.9 5.2 0.00 0.00 0.00 32 1011.3
20260905040526 71 0 0.9 7.0 0.00 0.00 0.00 33 1011.3
20260905040052 71 213 0.9 7.0 0.00 0.00 0.00 36 1011.2
20260905035528 71 207 1.7 4.3 0.00 0.00 0.00 36 1011.2
20260905035028 71 176 1.7 4.3 0.00 0.00 0.00 36 1011.2
20260905034544 71 193 0.9 8.7 0.00 0.00 0.00 36 1011.1
20260905034028 71 239 2.6 8.7 0.00 0.00 0.00 33 1011.1
20260905033527 71 252 3.5 8.7 0.00 0.00 0.00 31 1011.0
20260905033044 71 262 0.0 1.7 0.00 0.00 0.00 30 1010.8
20260905032528 71 262 0.0 1.7 0.00 0.00 0.00 31 1010.8
20260905032025 71 0 0.0 1.7 0.00 0.00 0.00 31 1010.7
20260905031553 72 0 0.0 1.7 0.00 0.00 0.00 29 1010.7
20260905031027 72 262 0.9 2.6 0.00 0.00 0.00 29 1010.6
20260905030529 72 0 0.9 2.6 0.00 0.00 0.00 29 1010.4
20260905030049 73 1 0.0 1.7 0.00 0.00 0.00 30 1010.3
20260905025527 74 0 0.0 1.7 0.00 0.00 0.00 27 1010.2
20260905025027 74 0 0.0 1.7 0.00 0.00 0.00 27 1010.2
20260905024543 75 0 0.0 2.6 0.00 0.00 0.00 29 1010.0
20260905024025 76 0 0.9 2.6 0.00 0.00 0.00 26 1010.0
20260905023532 77 0 0.0 1.7 0.00 0.00 0.00 27 1009.8
20260905023045 77 0 0.0 2.6 0.00 0.00 0.00 25 1009.8
20260905022531 77 0 0.0 2.6 0.00 0.00 0.00 25 1009.7
20260905022026 78 229 0.0 2.6 0.00 0.00 0.00 27 1009.6
20260905021553 79 0 0.0 1.7 0.00 0.00 0.00 25 1009.4
20260905021024 80 0 0.0 0.9 0.00 0.00 0.00 25 1009.3
20260905020527 80 0 0.0 0.9 0.00 0.00 0.00 22 1009.2
20260905020053 81 181 0.0 2.6 0.00 0.00 0.00 22 1009.2
20260905015524 82 0 0.9 3.5 0.00 0.00 0.00 21 1009.2
20260905015026 83 181 0.9 3.5 0.00 0.00 0.00 21 1009.1
20260905014544 84 190 0.0 4.3 0.00 0.00 0.00 20 1009.0
20260905014029 84 123 1.7 4.3 0.00 0.00 0.00 20 1009.0
20260905013525 85 0 0.9 2.6 0.00 0.00 0.00 19 1009.0
20260905013047 85 83 0.0 2.6 0.00 0.00 0.00 18 1008.9
20260905012526 85 0 0.9 2.6 0.00 0.00 0.00 19 1008.9
20260905012025 86 198 0.0 3.5 0.00 0.00 0.00 20 1008.8
20260905011607 87 0 0.9 5.2 0.00 0.00 0.00 20 1008.7
20260905011025 87 184 0.9 11.3 0.00 0.00 0.00 19 1008.7
20260905010528 88 190 3.5 11.3 0.00 0.00 0.00 18 1008.5
20260905010045 88 120 6.1 11.3 0.00 0.00 0.00 16 1008.6
20260905005525 88 75 3.5 12.2 0.00 0.00 0.00 17 1008.3
20260905005028 88 107 2.6 12.2 0.00 0.00 0.00 17 1008.5
20260905004545 88 132 4.3 10.4 0.00 0.00 0.00 18 1008.3
20260905004024 88 137 3.5 8.7 0.00 0.00 0.00 18 1008.3
20260905003524 88 110 5.2 9.6 0.00 0.00 0.00 18 1008.3
20260905003056 89 126 4.3 11.3 0.00 0.00 0.00 16 1008.3
20260905002526 89 77 4.3 11.3 0.00 0.00 0.00 17 1008.2
20260905002028 89 98 4.3 11.3 0.00 0.00 0.00 17 1008.3
20260905001553 89 124 6.1 11.3 0.00 0.00 0.00 17 1008.3
20260905001027 89 142 6.1 11.3 0.00 0.00 0.00 16 1008.3
20260905000526 89 133 4.3 10.4 0.00 0.00 0.00 16 1008.3
20260905000048 89 118 4.3 13.0 0.00 0.00 0.00 18 1008.3
20260904235527 89 65 5.2 13.0 0.00 0.00 0.00 17 1008.2
20260904235027 89 96 4.3 13.0 0.00 0.00 0.00 17 1008.5
20260904234546 89 97 5.2 13.0 0.00 0.00 0.00 18 1008.5
20260904234024 89 127 5.2 13.0 0.00 0.00 0.00 15 1008.5
20260904233528 89 74 6.1 13.0 0.00 0.00 0.00 17 1008.5
20260904233053 89 95 3.5 10.4 0.00 0.00 0.00 18 1008.6
20260904232530 89 146 5.2 10.4 0.00 0.00 0.00 16 1008.6
20260904232027 89 101 4.3 10.4 0.00 0.00 0.00 20 1008.5
20260904231548 89 160 4.3 11.3 0.00 0.00 0.00 16 1008.6
20260904231027 90 124 6.1 11.3 0.00 0.00 0.00 16 1008.6
20260904230531 90 105 4.3 7.8 0.00 0.00 0.00 17 1008.6
20260904230049 90 154 1.7 7.0 0.00 0.00 0.00 17 1008.6
20260904225525 90 90 1.7 7.8 0.00 0.00 0.00 20 1008.8
20260904225025 90 169 3.5 7.8 0.00 0.00 0.00 16 1008.7